Mankato, MN

10:09 AM CST on November 12, 2019 (GMT -0600)
Mankato Regional

Weather History for KMKT - September, 2019

Change the Weather History Date:

Monday, September 23, 2019

  Actual Average Record
Temperature  
Mean Temperature 63 °F -  
Max Temperature 75 °F 65 °F 88 °F (2017)
Min Temperature 51 °F 46 °F 32 °F (2012)
Degree Days  
Heating Degree Days 2    
Growing Degree Days 13 (Base 50)    
Moisture  
Dew Point 51 °F    
Average Humidity 71    
Maximum Humidity 97    
Minimum Humidity 40    
Precipitation  
Precipitation 0.00 in - - ()
Sea Level Pressure  
Sea Level Pressure 29.99 in    
Wind  
Wind Speed 6 mph ()    
Max Wind Speed 12 mph    
Max Gust Speed 18 mph    
Visibility 9.8 miles    
Events      
Averages and records for this station are not official NWS values.
T = Trace of Precipitation, MM = Missing Value Source: Averaged Metar Reports

Daily Weather History Graph

Daily Weather History Graph

Search for Another Location

Airport or City:

Astronomy

Sep. 23, 2019 Rise Set
Actual Time 7:03 AM CDT 7:11 PM CDT
Civil Twilight 6:34 AM CDT 7:40 PM CDT
Nautical Twilight 6:00 AM CDT 8:14 PM CDT
Astronomical Twilight 5:26 AM CDT 8:48 PM CDT
Moon 12:33 AM CDT (9/23) 4:19 PM CDT (9/23)
Length of Visible Light 13h 05m
Length of Day
12h 07m
Waning Crescent, 33% of the Moon is Illuminated
Sep 23
Waning Crescent
Sep 28
New
Oct 5
First Quarter
Oct 13
Full
Oct 21
Last Quarter

Hourly Weather History & Observations

Time (CDT) Temp. Dew Point Humidity Pressure Visibility Wind Dir Wind Speed Gust Speed Precip Events Conditions
12:56 AM 52.0 °F 51.1 °F 97% 29.96 in 10.0 mi SSW 3.5 mph - N/A   Clear
1:56 AM 52.0 °F 50.0 °F 93% 29.97 in 10.0 mi SW 5.8 mph - N/A   Clear
2:56 AM 52.0 °F 51.1 °F 97% 29.98 in 10.0 mi WSW 6.9 mph - N/A   Clear
3:56 AM 53.1 °F 51.1 °F 93% 29.98 in 10.0 mi WSW 6.9 mph - N/A   Clear
4:56 AM 51.1 °F 50.0 °F 96% 29.99 in 10.0 mi SW 5.8 mph - N/A   Clear
5:56 AM 51.1 °F 50.0 °F 96% 30.00 in 10.0 mi WSW 6.9 mph - N/A   Clear
6:56 AM 54.0 °F 51.1 °F 90% 30.01 in 10.0 mi West 6.9 mph - N/A   Clear
7:56 AM 53.1 °F 51.1 °F 93% 30.03 in 10.0 mi SW 4.6 mph - N/A   Clear
8:56 AM 57.9 °F 53.1 °F 84% 30.04 in 10.0 mi WSW 8.1 mph - N/A   Clear
9:56 AM 62.1 °F 52.0 °F 70% 30.05 in 10.0 mi West 8.1 mph - N/A   Clear
10:56 AM 66.0 °F 54.0 °F 65% 30.05 in 10.0 mi Variable 6.9 mph - N/A   Clear
11:56 AM 70.0 °F 54.0 °F 57% 30.04 in 10.0 mi Variable 4.6 mph - N/A   Clear
12:56 PM 72.0 °F 51.1 °F 48% 30.03 in 10.0 mi WSW 10.4 mph - N/A   Clear
1:56 PM 73.9 °F 50.0 °F 43% 30.01 in 10.0 mi WSW 11.5 mph 18.4 mph N/A   Partly Cloudy
2:56 PM 73.9 °F 48.9 °F 41% 29.99 in 10.0 mi WSW 9.2 mph - N/A   Clear
3:56 PM 75.0 °F 48.9 °F 40% 29.97 in 10.0 mi WSW 10.4 mph 16.1 mph N/A   Clear
4:56 PM 75.0 °F 48.9 °F 40% 29.97 in 10.0 mi WNW 6.9 mph - N/A   Clear
5:56 PM 73.9 °F 51.1 °F 45% 29.96 in 10.0 mi SW 3.5 mph - N/A   Clear
6:56 PM 71.1 °F 51.1 °F 49% 29.96 in 10.0 mi SSW 4.6 mph - N/A   Clear
7:56 PM 68.0 °F 51.1 °F 55% 29.96 in 10.0 mi SSE 5.8 mph - N/A   Clear
8:56 PM 64.9 °F 54.0 °F 68% 29.95 in 5.0 mi SSE 5.8 mph - N/A   Haze
9:56 PM 63.0 °F 53.1 °F 70% 29.95 in 10.0 mi SSE 6.9 mph - N/A   Clear
10:56 PM 59.0 °F 55.0 °F 87% 29.94 in 10.0 mi SSE 6.9 mph - N/A   Clear
11:56 PM 59.0 °F 53.1 °F 81% 29.92 in 10.0 mi SSE 8.1 mph - N/A   Clear